Location: Gad�tanya
(48.0500°N, 20.8500°E)
Time: 11:34:58
(UTC+00:00)

APEX - Pass Details

Date: 05 July 2020
Orbit: 333 x 1107 km, 69.9° (Epoch: 14 August)

Event Time Altitude Azimuth Distance (km) Brightness Sun altitude
Rises 22:01:53 0° 337° (NNW) 2,149 7.9 -18.7°
Reaches altitude 10° 22:03:57 10° 348° (NNW) 1,282 6.5 -18.8°
Maximum altitude 22:06:30 33° 56° (NE) 589 3.7 -18.8°
Enters shadow 22:06:45 33° 69° (ENE) 600 3.6 -18.9°
